Location: *
(33.8649°S, 62.1526°E)
Time: 12:31:42
(UTC+00:00)

USA 308 - Pass Details

Date: 17 January 2021
Orbit: 568 x 578 km, 54.0° (Epoch: 28 February)

Event Time Altitude Azimuth Distance (km) Brightness Sun altitude
Rises 23:17:32 0° 225° (SW) 2,811 6.4 -18.4°
Reaches altitude 10° 23:19:49 10° 226° (SW) 1,904 5.5 -18.0°
Maximum altitude 23:24:09 79° 312° (NW) 594 2.8 -17.3°
Drops below altitude 10° 23:28:25 10° 38° (NE) 1,875 5.5 -16.7°
Sets 23:30:39 0° 39° (NE) 2,764 6.4 -16.3°
